Overview Statistics Trail Chart Weather Telemetry Raw packets
 

This is the latest recevied weather packets stored in our database for station/object N1YZ. If no packets are shown the sender has not sent any weather packets the latest 10 day(s).

<< 30 31 32 33 34 35 36 >>
Time Temp. Humidity Pressure Rain* Wind** Luminosity Snow
1788450687 33.33° C 60% 1037.3 hPa 0 mm - 67 W/m² -
1788450383 33.33° C 63% 1037.1 hPa 0 mm - 65 W/m² -
1788450080 32.78° C 64% 1037.1 hPa 0 mm - 81 W/m² -
1788449775 32.78° C 63% 1037.3 hPa 0 mm - 175 W/m² -
1788449470 33.33° C 63% 1037.1 hPa 0 mm - 89 W/m² -
1788449166 32.78° C 63% 1037.4 hPa 0 mm - 146 W/m² -
1788448863 32.78° C 63% 1037.3 hPa 0 mm - 349 W/m² -
1788448561 32.22° C 64% 1037.3 hPa 0 mm - 118 W/m² -
1788448257 32.22° C 66% 1037.3 hPa 0 mm - 128 W/m² -
1788447956 32.22° C 65% 1037.1 hPa 0 mm - 88 W/m² -
1788447652 31.67° C 69% 1037.1 hPa 0 mm - 49 W/m² -
1788447351 31.67° C 70% 1037.1 hPa 0 mm - 114 W/m² -
1788447046 31.67° C 71% 1037.1 hPa 0 mm - 88 W/m² -
1788446745 31.11° C 72% 1037.1 hPa 0 mm - 138 W/m² -
1788446442 31.11° C 71% 1036.8 hPa 0 mm - 119 W/m² -
1788446138 31.11° C 72% 1037 hPa 0 mm - 204 W/m² -
1788445833 31.11° C 73% 1037 hPa 0 mm - 285 W/m² -
1788445528 30.56° C 73% 1036.8 hPa 0 mm - 292 W/m² -
1788445226 30.56° C 75% 1036.9 hPa 0 mm - 277 W/m² -
1788444921 30° C 76% 1037 hPa 0 mm - 266 W/m² -
1788444616 29.44° C 77% 1036.7 hPa 0 mm - 252 W/m² -
1788444311 28.89° C 82% 1036.8 hPa 0 mm - 206 W/m² -
1788444007 28.89° C 82% 1037 hPa 0 mm - 67 W/m² -
1788443702 28.33° C 83% 1036.9 hPa 0 mm - 47 W/m² -
1788443396 28.33° C 84% 1037 hPa 0 mm - 41 W/m² -

* Rain latest hour (hover to see other rain measurements)
** Current wind speed in m/s (hover to see current wind gust speed)